STARLINK-32780, 62746

Orbit data source: Space-Track

STARLINK-32780, 62746 is a payload satellite owned by SpaceX/Seattle (US) in LEO that was launched on Tue, 21 Jan 2025 UTC via an FALCON 9 launch vehicle from the Air Force Eastern Test Range (AFETR). Payload-class satellites include a variety of spacecraft equipped with specific instruments for various scientific and technological missions. These include communications satellites like Starlink; space stations such as the ISS; scientific satellites like the Hubble; Earth observation satellites from companies like Planet Labs, Umbra, and HawkEye 360; GPS; miniature CubeSats for education and research; and military/defense satellites.

Loading next visibility...
Identifier
62746, 2025-014M
Orbit
LEO
Country
Flag of USUS
Related business
Manufacturer
SpaceX/Seattle
Mission
Operational Commercial Communications
Bus & Motor
STARLINK V2M, Unknown motor
Mass
730 kg wet, ~700 kg dry
Launch date (UTC)
2025-01-21 (11 months ago)
Launch vehicle
FALCON 9
Launch site
Air Force Eastern Test Range (AFETR)
Object type
Payload
Rocket body
Debris
Shape & HBR
Box + 2 Pan, 17.7 m
Radar Cross Section
33.884 m², Large (>1 m²)

Expand to show TLE details & history
Last TLE update: 21 hours ago

TLE from 21 hours ago
0 STARLINK-32780
1 62746U 25014M   25348.82140246  .00027649  00000-0  10107-2 0  9995
2 62746  42.9982 274.0448 0000425 303.4300  56.6511 15.27571759 50271
Epoch: 2025-12-14T19:42Z
TLE epoch observation values (Epoch: 2025-12-14T19:42:49.172Z)
Latitude
-0.00002°
Longitude
-105.38892°
Altitude
482.689 km
Speed
7.626 km/s
True Right ascension
18h 16m 10s
True Declination
0° 00' 00"
Sunlit
Object was in daylight at epoch
Visualization orbit readout
Latitude
Unknown
Longitude
Unknown
Altitude
Unknown
Speed
Unknown
Apparent Right ascension
Unknown
Apparent Declination
Unknown
Sunlit
N/A
Visualization observer readout
Local Sidereal Time
15:11:09
Azimuth
Unknown
Elevation
Unknown
Doppler factor
Unknown
Orbital elements
Apogee altitude
485.311 km
Perigee altitude
484.728 km
Semi-major axis
6,863.156 km
Eccentricity
0.00004
Inclination
42.9982°
RAAN
274.0448°
Arg. of periapsis
303.43°
True anomaly
56.65517°
Mean anomaly
56.6511°
Eccentric anomaly
56.65313°
Mean motion
3.81731 °/min
Orbital period
94.31 mins
BSTAR
0.0010107
Loading maneuver chart data...
Computing Atmospheric mass density...
Loading historical data...
Loading historical data...
Loading historical data...
Loading historical data...
Loading historical data...
Loading historical data...
Loading historical data...

Documentation

Showing up to 5 results
|